• în România
  • Lista ţărilor
  • Pe 7 zile
  • Temperatura apei
  • Hartă satelitară
  • Meteo pe hartă
  • Widget-uri
  • user-avatar
    Intrare

    Meteo pe oră la Terekeevo

    Astăzi, 18 Octombrie, Joi

    Timp Temperatura Precipitaţii Vânt Presiune Umiditate
    00:00 +1°C° 0 mm 4 m/s 747 mmHg 81%
    01:00 +1°C° 0 mm 4 m/s 747 mmHg 83%
    02:00 0°C° 0 mm 4 m/s 748 mmHg 85%
    03:00 0°C° 0 mm 4 m/s 748 mmHg 86%
    04:00 0°C° 0 mm 3 m/s 748 mmHg 90%
    05:00 0°C° 0 mm 3 m/s 748 mmHg 91%
    06:00 -1°C° 0 mm 4 m/s 748 mmHg 92%
    07:00 -1°C° 0 mm 4 m/s 748 mmHg 93%
    08:00 0°C° 0 mm 4 m/s 748 mmHg 89%
    09:00 0°C° 0 mm 4 m/s 748 mmHg 86%
    10:00 +1°C° 0 mm 5 m/s 748 mmHg 81%
    11:00 +2°C° 0 mm 5 m/s 748 mmHg 79%
    12:00 +3°C° 0 mm 4 m/s 748 mmHg 76%
    13:00 +3°C° 0 mm 4 m/s 748 mmHg 73%
    14:00 +4°C° 0 mm 4 m/s 748 mmHg 73%
    15:00 +4°C° 0 mm 3 m/s 748 mmHg 73%
    16:00 +5°C° 0 mm 2 m/s 748 mmHg 77%
    17:00 +4°C° 0 mm 2 m/s 748 mmHg 81%
    18:00 +4°C° 0 mm 2 m/s 748 mmHg 84%
    19:00 +3°C° 0 mm 2 m/s 748 mmHg 87%
    20:00 +3°C° 0 mm 2 m/s 747 mmHg 89%
    21:00 +3°C° 0 mm 2 m/s 747 mmHg 90%
    22:00 +2°C° 0 mm 2 m/s 747 mmHg 91%
    23:00 +2°C° 0 mm 3 m/s 746 mmHg 89%

    Mâine, 19 Octombrie, Vineri

    Timp Temperatura Precipitaţii Vânt Presiune Umiditate
    00:00 +2°C° 0 mm 3 m/s 746 mmHg 88%
    01:00 +3°C° 0 mm 3 m/s 745 mmHg 86%
    02:00 +3°C° 0 mm 3 m/s 745 mmHg 88%
    03:00 +1°C° 0 mm 4 m/s 745 mmHg 89%
    04:00 +1°C° 0 mm 4 m/s 744 mmHg 91%
    05:00 +3°C° 0 mm 4 m/s 744 mmHg 92%
    06:00 +3°C° 0 mm 4 m/s 744 mmHg 94%
    07:00 +3°C° 0 mm 3 m/s 744 mmHg 95%
    08:00 +4°C° 0 mm 4 m/s 744 mmHg 94%
    09:00 +4°C° 0 mm 4 m/s 744 mmHg 94%
    10:00 +5°C° 0 mm 4 m/s 744 mmHg 93%
    11:00 +5°C° 0 mm 3 m/s 744 mmHg 92%
    12:00 +7°C° 0 mm 3 m/s 744 mmHg 91%
    13:00 +7°C° 0 mm 3 m/s 744 mmHg 90%
    14:00 +7°C° 0 mm 3 m/s 743 mmHg 90%
    15:00 +8°C° 0 mm 3 m/s 743 mmHg 90%
    16:00 +8°C° 0 mm 3 m/s 743 mmHg 90%
    17:00 +8°C° 0 mm 3 m/s 743 mmHg 91%
    18:00 +8°C° 0 mm 3 m/s 743 mmHg 92%
    19:00 +8°C° 0 mm 3 m/s 742 mmHg 93%
    20:00 +7°C° 0 mm 3 m/s 742 mmHg 93%
    21:00 +6°C° 0 mm 4 m/s 742 mmHg 93%
    22:00 +6°C° 0 mm 4 m/s 742 mmHg 94%
    23:00 +6°C° 0 mm 4 m/s 741 mmHg 94%

    Poimâine, 20 Octombrie, Sâmbătă

    Timp Temperatura Precipitaţii Vânt Presiune Umiditate
    00:00 +6°C° 0 mm 4 m/s 741 mmHg 94%
    01:00 +6°C° 0 mm 4 m/s 741 mmHg 94%
    02:00 +7°C° 0.3 mm 4 m/s 741 mmHg 95%
    03:00 +7°C° 0.3 mm 4 m/s 741 mmHg 96%
    04:00 +7°C° 0.3 mm 4 m/s 741 mmHg 96%
    05:00 +8°C° 0.3 mm 4 m/s 740 mmHg 96%
    06:00 +8°C° 0.3 mm 4 m/s 740 mmHg 96%
    07:00 +8°C° 0.3 mm 4 m/s 740 mmHg 96%
    08:00 +8°C° 0.2 mm 4 m/s 740 mmHg 94%
    09:00 +9°C° 0.2 mm 3 m/s 740 mmHg 92%
    10:00 +9°C° 0.2 mm 3 m/s 740 mmHg 89%
    11:00 +9°C° 0.1 mm 3 m/s 740 mmHg 83%
    12:00 +10°C° 0.1 mm 3 m/s 740 mmHg 76%
    13:00 +10°C° 0.1 mm 3 m/s 740 mmHg 70%
    14:00 +10°C° 0 mm 3 m/s 741 mmHg 70%
    15:00 +9°C° 0 mm 3 m/s 741 mmHg 70%
    16:00 +9°C° 0 mm 3 m/s 741 mmHg 70%
    17:00 +8°C° 0 mm 3 m/s 741 mmHg 74%
    18:00 +7°C° 0 mm 3 m/s 742 mmHg 77%
    19:00 +4°C° 0 mm 3 m/s 742 mmHg 81%
    20:00 +4°C° 0 mm 3 m/s 742 mmHg 82%
    21:00 +4°C° 0 mm 3 m/s 742 mmHg 83%
    22:00 +4°C° 0 mm 3 m/s 743 mmHg 84%
    23:00 +4°C° 0 mm 3 m/s 743 mmHg 86%

    21 Octombrie, Duminică

    Timp Temperatura Precipitaţii Vânt Presiune Umiditate
    00:00 +4°C° 0 mm 3 m/s 743 mmHg 89%
    01:00 +3°C° 0 mm 3 m/s 743 mmHg 91%
    02:00 +3°C° 0 mm 3 m/s 743 mmHg 91%
    03:00 +3°C° 0 mm 3 m/s 744 mmHg 92%
    04:00 +3°C° 0 mm 3 m/s 744 mmHg 93%
    05:00 +2°C° 0 mm 3 m/s 744 mmHg 93%
    06:00 +2°C° 0 mm 3 m/s 745 mmHg 94%
    07:00 +2°C° 0 mm 3 m/s 745 mmHg 95%
    08:00 +3°C° 0 mm 4 m/s 746 mmHg 90%
    09:00 +3°C° 0 mm 4 m/s 746 mmHg 86%
    10:00 +4°C° 0 mm 4 m/s 747 mmHg 82%
    11:00 +4°C° 0 mm 4 m/s 747 mmHg 78%
    12:00 +4°C° 0 mm 4 m/s 748 mmHg 75%
    13:00 +4°C° 0 mm 4 m/s 748 mmHg 71%
    14:00 +4°C° 0 mm 4 m/s 748 mmHg 70%
    15:00 +3°C° 0 mm 4 m/s 749 mmHg 70%
    16:00 +3°C° 0 mm 4 m/s 749 mmHg 69%
    17:00 +2°C° 0 mm 3 m/s 750 mmHg 73%
    18:00 +2°C° 0 mm 3 m/s 750 mmHg 76%
    19:00 +2°C° 0 mm 2 m/s 750 mmHg 79%
    20:00 +2°C° 0 mm 2 m/s 751 mmHg 80%
    21:00 +1°C° 0 mm 2 m/s 751 mmHg 80%
    22:00 +1°C° 0 mm 2 m/s 751 mmHg 80%
    23:00 +1°C° 0 mm 2 m/s 751 mmHg 80%

    22 Octombrie, Luni

    Timp Temperatura Precipitaţii Vânt Presiune Umiditate
    00:00 +1°C° 0 mm 2 m/s 752 mmHg 80%
    01:00 +1°C° 0 mm 1 m/s 752 mmHg 79%
    02:00 +1°C° 0 mm 1 m/s 752 mmHg 79%
    03:00 +1°C° 0 mm 1 m/s 752 mmHg 79%
    04:00 0°C° 0 mm 1 m/s 753 mmHg 79%
    05:00 0°C° 0 mm 1 m/s 753 mmHg 78%
    06:00 0°C° 0 mm 1 m/s 753 mmHg 78%
    07:00 0°C° 0 mm 1 m/s 753 mmHg 77%
    08:00 +1°C° 0 mm 1 m/s 753 mmHg 72%
    09:00 +1°C° 0 mm 1 m/s 753 mmHg 67%
    10:00 +2°C° 0 mm 1 m/s 753 mmHg 61%
    11:00 +3°C° 0 mm 1 m/s 754 mmHg 59%
    12:00 +3°C° 0 mm 1 m/s 754 mmHg 57%
    13:00 +3°C° 0 mm 1 m/s 754 mmHg 56%
    14:00 +3°C° 0 mm 1 m/s 753 mmHg 58%
    15:00 +3°C° 0 mm 1 m/s 753 mmHg 60%
    16:00 +3°C° 0 mm 1 m/s 753 mmHg 63%
    17:00 +1°C° 0 mm 0 m/s 753 mmHg 66%
    18:00 0°C° 0 mm 0 m/s 753 mmHg 68%
    19:00 0°C° 0 mm 0 m/s 753 mmHg 71%
    20:00 -1°C° 0 mm 0 m/s 753 mmHg 72%
    21:00 -1°C° 0 mm 0 m/s 753 mmHg 72%
    22:00 -1°C° 0 mm 0 m/s 753 mmHg 73%
    23:00 0°C° 0 mm 1 m/s 753 mmHg 73%

    23 Octombrie, Marţi

    Timp Temperatura Precipitaţii Vânt Presiune Umiditate
    00:00 0°C° 0 mm 1 m/s 753 mmHg 73%
    01:00 0°C° 0 mm 1 m/s 753 mmHg 73%
    02:00 0°C° 0 mm 1 m/s 753 mmHg 74%
    03:00 0°C° 0 mm 1 m/s 753 mmHg 74%
    04:00 0°C° 0 mm 1 m/s 753 mmHg 75%
    05:00 0°C° 0 mm 1 m/s 753 mmHg 75%
    06:00 -2°C° 0 mm 2 m/s 752 mmHg 75%
    07:00 -2°C° 0 mm 2 m/s 752 mmHg 76%
    08:00 -1°C° 0 mm 2 m/s 752 mmHg 71%
    09:00 +1°C° 0 mm 2 m/s 752 mmHg 66%
    10:00 +1°C° 0 mm 3 m/s 752 mmHg 62%
    11:00 +2°C° 0 mm 3 m/s 752 mmHg 59%
    12:00 +3°C° 0 mm 3 m/s 752 mmHg 57%
    13:00 +3°C° 0 mm 3 m/s 751 mmHg 55%
    14:00 +3°C° 0 mm 3 m/s 751 mmHg 59%
    15:00 +2°C° 0 mm 3 m/s 751 mmHg 62%
    16:00 +2°C° 0 mm 3 m/s 750 mmHg 66%
    17:00 +1°C° 0 mm 3 m/s 750 mmHg 69%
    18:00 0°C° 0 mm 3 m/s 750 mmHg 72%
    19:00 -1°C° 0 mm 3 m/s 750 mmHg 75%
    20:00 -1°C° 0 mm 3 m/s 750 mmHg 75%
    21:00 -1°C° 0 mm 3 m/s 749 mmHg 75%
    22:00 -1°C° 0 mm 3 m/s 749 mmHg 74%
    23:00 0°C° 0 mm 3 m/s 749 mmHg 74%
    Arată mai mult